Regional Weather Roundup
Issued by NWS Grand Forks, ND

Home | Current Version | Previous Version | Text Only | Print | Product List | Glossary Off
Versions: 1 2 3 4 5 6 7 8 9 10 11 12 13 14 15 16 17 18 19 20 21 22 23 24 25 26 27 28 29 30 31 32 33 34 35 36 37 38 39 40 41 42 43 44 45 46 47 48 49 50

000
ASUS43 KFGF 252210
RWRFGF
PRAIRIE TO PINES  WEATHER ROUNDUP
NATIONAL WEATHER SERVICE EASTERN NORTH DAKOTA/GRAND FORKS ND
400 PM CST SUN JAN 25 2015

 **SATELLITE DATA USED TO AUGMENT SKY COVER AT AUTOMATED STATIONS**
 *****  WEATHER ACROSS EASTERN NORTH DAKOTA  *****

CITY           SKY/WX    TMP DP  RH WIND       PRES   REMARKS
GRAND FORKS    CLOUDY    26  16  65 S9        29.96F WCI  17
GRAND FRKS AFB CLOUDY    26  18  72 SW8       29.96F WCI  18
GRAND FRKS NWS   N/A     25 N/A N/A SW10        N/A  WCI  15
DEVILS LAKE    CLOUDY    25  19  80 SW10      29.89F WCI  15
FARGO          MOSUNNY   26  16  65 S6        29.99F WCI  19
WAHPETON ARPT  PTCLDY    27  18  69 CALM      30.01F
$$

 ***** WEATHER ACROSS CENTRAL AND WESTERN NORTH DAKOTA  *****

CITY           SKY/WX    TMP DP  RH WIND       PRES   REMARKS
BISMARCK       CLOUDY    37  32  82 SW5       29.93F
MINOT          CLOUDY    34  30  85 S13       29.83F WCI  25
JAMESTOWN      CLOUDY    27  23  85 S8        29.93F WCI  19
MINOT AFB      CLOUDY    34  34  99 S9        29.81F
GARRISON         N/A     35  31  85 SW8       29.87F
WILLISTON      CLOUDY    42  31  64 S10       29.83F
DICKINSON      MOSUNNY   44  30  57 SW10      29.86F
HETTINGER      CLOUDY    45  28  51 S6        29.91F
$$

 *****  OTHER AIRPORT OBSERVATIONS IN OUR AREA  *****

CITY           SKY/WX    TMP DP  RH WIND       PRES   REMARKS
WALHALLA         N/A     25  23  93 S9        29.92S WCI  15
GRAFTON AIRPOR NOT AVBL
VALLEY CITY AR NOT AVBL
CANDO          CLOUDY    25  23  93 S10       29.88F WCI  15
CAVALIER APRT  CLOUDY    25  19  80 S6        29.93F WCI  18
GWINNER        MOCLDY    28  23  80 SW8       30.00S WCI  20
SHEYENNE NWR     N/A     27  16  62 SW5       29.95S WCI  22
ROLLA          CLOUDY    19  19 100 SW12      29.84F WCI   7
 ***** THE ABOVE OBSERVATIONS ARE NON NWS ARE NOT QUALITY
       CONTROLLED AND MAY MIS-REPORT RAIN FOR SNOW...
$$

  *****  WEATHER ACROSS NORTHERN MINNESOTA  *****

CITY           SKY/WX    TMP DP  RH WIND       PRES   REMARKS
FLAG ISLAND    CLOUDY    12   7  79 S8        29.95F WCI   1
WARROAD        CLOUDY    18   9  68 CALM      29.95S
ROSEAU         CLOUDY    19  10  68 S9        29.94F WCI   9
HALLOCK        CLOUDY    19  12  73 S12       29.96S WCI   7
THF RVR FALLS  PTCLDY    19  12  73 S6        29.96F WCI  11
BAUDETTE       CLOUDY    19   9  65 S6        29.92F WCI  11
WASKISH        CLOUDY    19  12  73 CALM      29.96F
CROOKSTON      MOCLDY    23  16  74 S10       29.97F WCI  12
STEPHEN NDAWN    N/A     19  12  73 S8          N/A  WCI   9
GREENBUSH NDAW   N/A     19  10  68 S10         N/A  WCI   8
$$
  *****  WEATHER ACROSS CENTRAL AND WEST MINNESOTA  *****

CITY           SKY/WX    TMP DP  RH WIND       PRES   REMARKS
FOSSTON        MOCLDY    23  18  80 S10       29.96F WCI  12
BEMIDJI        CLOUDY    28  17  66 S7        29.96F WCI  20
PARK RAPIDS    MOCLDY    29  19  66 S6        29.96F WCI  23
ELBOW LAKE     CLOUDY    24  21  88 W5        30.01F WCI  19
WADENA         MOCLDY    27  19  74 S3        29.98F
DETROIT LAKES  PTCLDY    28  21  74 SW5       29.98F WCI  23
MOORHEAD       MOSUNNY   27  19  74 S3        30.00F
FERGUS FALLS   MOSUNNY   25  21  86 SW3       30.02F
MORRIS MN      CLOUDY    27  23  86 NW5       30.03R WCI  21
STAPLES        PTCLDY    27  16  63 SW3       29.99F
$$
  *****  WEATHER ELSEWHERE ACROSS MINNESOTA  *****

CITY           SKY/WX    TMP DP  RH WIND       PRES   REMARKS
DULUTH         FLURRIES  20  13  74 E10       29.99F WCI   9
INTRNTL FALLS  CLOUDY    18   8  65 VRB3      29.97F
ELY            PTCLDY    18   7  62 S6        29.99S WCI   9
CLOQUET        CLOUDY    19  12  73 E6        30.00F WCI  11
WHEATON        MOSUNNY   25  18  74 CALM      30.04F
BRAINERD       CLEAR     26  14  60 CALM      30.01S
HIBBING        CLOUDY    22  12  65 VRB5      29.99F WCI  16
ALEXANDRIA     CLOUDY    27  21  78 S6        30.01S WCI  20
SAINT CLOUD    CLEAR     27  15  61 CALM      30.02S
MINNEAPOLIS    PTCLDY    26  11  52 E3        30.03F
$$

  *****  WEATHER ACROSS SOUTH DAKOTA  *****

CITY           SKY/WX    TMP DP  RH WIND       PRES   REMARKS
SIOUX FALLS    CLOUDY    34  30  85 NW9       30.03R
BROOKINGS      NOT AVBL
WATERTOWN      CLOUDY    30  23  75 W3        29.99F
HURON          CLOUDY    34  29  82 CALM      30.03S
SISSETON         N/A     25  20  81 CALM      30.01F
ABERDEEN       CLOUDY    31  25  78 S6        30.01F
MITCHELL       CLOUDY    36  31  82 NW6       30.05R
PIERRE         PTSUNNY   42  29  59 W5        29.99F
MOBRIDGE       CLOUDY    41  32  70 W5        29.94F
RAPID CITY     CLOUDY    50  21  32 SE7       29.96F
$$

  *****  SOME WEATHER IN NEARBY STATES *****

CITY           SKY/WX    TMP DP  RH WIND       PRES   REMARKS
GLASGOW MT     SUNNY     50  38  63 W8        29.83R
GREAT FALLS MT CLOUDY    57  31  37 SW22G31   30.01S
CHEYENNE WY    SUNNY     51  27  39 NW15G26   30.11R
SCOTTSBLUFF NE MOSUNNY   54  34  46 NW5       30.05F
OMAHA NE       PTSUNNY   40  31  70 N16       30.04R
DES MOINES IA  CLOUDY    35  28  75 N13       30.00R
DAVENPORT IA   CLOUDY    28  19  69 N16       29.93R WCI  16
CHICAGO IL     CLOUDY    26  18  71 NE21G30   29.89R WCI  12
EAU CLAIRE WI  CLOUDY    23  10  57 E7        30.04R WCI  15
LA CROSSE WI   CLEAR     29  14  53 NE9       30.03R WCI  20
$$

  *****  SOME NATIONAL WEATHER *****

CITY           SKY/WX    TMP DP  RH WIND       PRES   REMARKS
LA GUARDIA NY  MOCLDY    38  12  34 NW12      29.84R
RALEIGH NC     PTCLDY    53  32  44 SE8       29.82F
ATLANTA GA     MOSUNNY   59  31  34 SW9G21    29.74F
NEW ORLEANS LA MOSUNNY   66  39  37 SW21G30   29.91F
OKLAHOMA CITY  MOSUNNY   58  24  27 N28G40    30.04R
ALBUQUERQUE NM MOSUNNY   53  21  28 CALM      30.25F
SALT LAKE CITY MOSUNNY   51  34  52 VRB6      30.42S
LOS ANGELES CA MOSUNNY   75  29  18 W10       29.95F
BOISE ID       MOSUNNY   44  35  70 VRB3      30.41F
SEATTLE WA     PTSUNNY   60  50  69 CALM      30.09F
$$

*** WEATHER ACROSS MANITOBA...SASKATCHEWAN AND ONTARIO ***
                ***ONTARIO***

CITY           SKY/WX    TMP DP  RH WIND       PRES   REMARKS
GERALDTON      CLEAR      3  -8  60 SW5       30.04S WCI  -6
THUNDER BAY    PTCLDY    10   0  61 E6        30.10S WCI   1
SIOUX LOOKOUT  CLOUDY    12  -4  48 S7        29.96S WCI   2
TORONTO        MOCLDY    16  -2  45 N14       29.99R WCI   1
BIG TROUT LK   PTCLDY    -6  -9  84 S5        29.95F WCI -17
PICKLE LAKE    MOCLDY     1  -8  66 S6        29.97R WCI -10
DRYDEN         FLURRIES  12   3  67 S6        29.95R WCI   3
KENORA         CLOUDY    10   1  67 S6        29.93F WCI   1
$$
                *** MANITOBA***

CITY           SKY/WX    TMP DP  RH WIND       PRES   REMARKS
BRANDON        CLOUDY    21  19  93 SW9       29.84R WCI  11
DAUPHIN        CLOUDY    28  23  80 SW7       29.72F WCI  21
ISLAND LAKE    LGT SNOW   7   1  78 SE8       29.78F WCI  -6
PILOT MOUND      N/A     21  19  93 SW15        N/A  WCI   8
THE PAS        LGT SNOW  23  21  93 S15       29.49F WCI  10
THOMPSON       LGT SNOW   5   0  78 SE3       29.65F
WINNIPEG       CLOUDY    19  12  73 S16       29.93S WCI   5
LYNN LAKE      LGT SNOW   5   3  92 SE9       29.51S WCI  -9
GILLAM         FLURRIES   1  -4  78 SE8       29.77F WCI -12
$$
                ***SASKATCHEWAN***

CITY           SKY/WX    TMP DP  RH WIND       PRES   REMARKS
ESTEVAN        CLOUDY    37  32  81 SW14      29.77F
KINDERSLEY     MOSUNNY   37  32  81 W6        29.74R
LLOYDMINSTER   MOSUNNY   41  30  65 W18       29.66R
PRINCE ALBERT  MOCLDY    43  30  61 W12       29.53S
REGINA         MOSUNNY   36  32  87 S12       29.69F
YORKTON        LGT RAIN  32  28  86 S16       29.61F WCI  21
N. BATTLEFORD  SUNNY     46  32  57 W15G22    29.66R
LA RONGE       MOCLDY    39  36  87 W9        29.38S
SASKATOON      PTSUNNY   37  32  81 SW13      29.65S
SWIFT CURRENT  SUNNY     46  37  71 W14       29.75R
$$
NOTE: THESE ARE AUTOMATED STATIONS WITH LIMITED QUALITY CONTROL
      "FAIR" INDICATES FEW OR NO CLOUDS BELOW 12,000 FEET WITH NO
      SIGNIFICANT WEATHER AND/OR OBSTRUCTIONS TO VISIBILITY.
      SKY/WX - SKY CONDITION AND SIGNIFICANT WEATHER.
      TMP - AIR TEMPERATURE.    DP   - DEWPOINT TEMPERATURE.
      RH  - RELATIVE HUMIDITY.  PRES - PRESSURE.
      HX  - HEAT INDEX.         WCI  - WIND CHILL INDEX.
$


USA.gov is the U.S. government's official web portal to all federal, state and local government web resources and services.